Regional Weather Roundup
Issued by NWS Little Rock, AR

Home | Current Version | Previous Version | Text Only | Print | Product List | Glossary Off
Versions: 1 2 3 4 5 6 7 8 9 10 11 12 13 14 15 16 17 18 19 20 21 22 23 24 25 26 27 28 29 30 31 32 33 34 35 36 37 38 39 40 41 42 43 44 45 46 47 48 49 50

000
ASUS44 KLZK 210405
RWRLZK

WEATHER ROUNDUP FOR ARKANSAS
NATIONAL WEATHER SERVICE LITTLE ROCK AR
1000 PM CST THU NOV 20 2014

NOTE: "FAIR" INDICATES FEW OR NO CLOUDS BELOW 12,000 FEET WITH NO
SIGNIFICANT WEATHER AND/OR OBSTRUCTIONS TO VISIBILITY.

ARZ001-003-010-029-210500-
NORTHWEST ARKANSAS

CITY           SKY/WX    TMP DP  RH WIND       PRES   REMARKS
FAYETTEVILLE   CLEAR     32  30  92 CALM      30.16R
FORT SMITH     MOCLDY    45  33  63 E5        30.17R
HARRISON       CLEAR     38  26  62 SE9       30.20R
BENTONVILLE    CLEAR     41  27  56 E5        30.17R
ROGERS         CLEAR     41  26  55 E9        30.17R
SILOAM SPGS    CLEAR     41  27  56 E6        30.16R
HIGHFILL       CLEAR     39  28  64 E6        30.15R
$$

ARZ004-005-016-210500-
NORTH CENTRAL ARKANSAS

CITY           SKY/WX    TMP DP  RH WIND       PRES   REMARKS
BATESVILLE     CLOUDY    43  27  52 CALM      30.26R
FLIPPIN        CLEAR     39  21  48 CALM      30.24R
MTN HOME       CLEAR     38  23  55 E5        30.23R
$$

ARZ040-041-210500-
WEST CENTRAL ARKANSAS

CITY           SKY/WX    TMP DP  RH WIND       PRES   REMARKS
MENA           CLOUDY    52  45  76 E5        30.17R
MOUNT IDA      CLOUDY    50  44  80 CALM      30.16R
$$

ARZ009-017-025-026-028-210500-
NORTHEAST ARKANSAS

CITY           SKY/WX    TMP DP  RH WIND       PRES   REMARKS
CORNING        CLOUDY    41  32  70 NE3       30.28S
JONESBORO      CLOUDY    43  27  53 NE10      30.26R
NEWPORT        LGT RAIN  43  31  63 NE6       30.27R
WALNUT RIDGE   CLOUDY    43  27  52 NE7       30.26R
BLYTHEVILLE    CLOUDY    45  27  49 NE9       30.27R
$$

ARZ022-023-033-042-044-210500-
CENTRAL ARKANSAS

CITY           SKY/WX    TMP DP  RH WIND       PRES   REMARKS
LITTLE ROCK    MOCLDY    45  34  65 NE6       30.22R
N LITTLE ROCK  MOCLDY    46  37  69 E5        30.22R
JACKSONVILLE   PTCLDY    44  33  64 NE5       30.22R
SEARCY         CLOUDY    46  28  49 NE9       30.25R
HOT SPRINGS    PTCLDY    48  40  73 SE5       30.19R
RUSSELLVILLE   CLOUDY    49  33  54 CALM      30.20R
CLINTON        FAIR      32  30  93 CALM      30.26R
$$

ARZ036-210500-
EAST ARKANSAS

CITY           SKY/WX    TMP DP  RH WIND       PRES   REMARKS
WEST MEMPHIS   PTCLDY    42  30  62 E3        30.23R
$$

ARZ050-053-066-070-073-210500-
SOUTHWEST ARKANSAS

CITY           SKY/WX    TMP DP  RH WIND       PRES   REMARKS
ARKADELPHIA    CLOUDY    51  47  86 NE5       30.19R
CAMDEN         MOCLDY    48  46  93 CALM      30.18R FOG
TEXARKANA      LGT RAIN  50  49  96 CALM      30.14R FOG
EL DORADO      MOCLDY    53  49  86 SE6       30.17R
DE QUEEN       CLOUDY    50  46  86 E6        30.14R
$$

ARZ056-057-069-210500-
SOUTHEAST ARKANSAS

CITY           SKY/WX    TMP DP  RH WIND       PRES   REMARKS
PINE BLUFF     CLOUDY    48  42  80 NE3       30.20R
STUTTGART      CLOUDY    45  36  70 N8        30.23R
MONTICELLO     MOCLDY    50  47  89 E3        30.19R

$$




USA.gov is the U.S. government's official web portal to all federal, state and local government web resources and services.